FW5319 Weather Reports


time (UTC)temp
C
wind
direction
speed
KPH
gust
KPH
rain 1hr
cm
rain 24hr
cm
rain mn
cm
humidity
%
barometer
mb
20260507213030 22 354 14.5 29.0 0.00 0.00 0.00 32 1017.0
20260507211540 21 342 16.1 29.0 0.00 0.00 0.00 32 1017.1
20260507210030 21 346 17.7 29.0 0.00 0.00 0.00 33 1017.3
20260507204607 21 350 12.9 25.7 0.00 0.00 0.00 33 1017.6
20260507203032 21 10 11.3 19.3 0.00 0.00 0.00 34 1017.8
20260507201532 20 37 9.7 22.5 0.00 0.00 0.00 35 1017.9
20260507200054 20 27 9.7 17.7 0.00 0.00 0.00 36 1018.0
20260507193032 18 335 8.0 20.9 0.00 0.00 0.00 41 1018.2
20260507191529 18 349 9.7 17.7 0.00 0.00 0.00 44 1018.4
20260507190029 17 7 8.0 16.1 0.00 0.00 0.00 46 1018.6
20260507184529 17 4 9.7 17.7 0.00 0.00 0.00 47 1018.7
20260507183046 16 335 9.7 17.7 0.00 0.00 0.00 52 1018.8
20260507181530 16 323 9.7 19.3 0.00 0.00 0.00 53 1018.9
20260507180029 16 360 12.9 19.3 0.00 0.00 0.00 55 1019.1
20260507174531 16 357 9.7 19.3 0.00 0.00 0.00 56 1019.1
20260507173029 15 346 8.0 14.5 0.00 0.00 0.00 58 1019.2
20260507170032 15 27 11.3 20.9 0.00 0.00 0.00 62 1019.4
20260507164532 15 358 8.0 12.9 0.00 0.00 0.00 66 1019.3
20260507163110 15 313 8.0 12.9 0.00 0.00 0.00 69 1019.2
20260507160031 13 286 6.4 12.9 0.00 0.00 0.00 77 1019.7
20260507154530 12 291 8.0 12.9 0.00 0.00 0.00 81 1019.8
20260507153107 11 271 4.8 11.3 0.00 0.00 0.00 84 1019.9
20260507151530 10 305 3.2 6.4 0.00 0.00 0.00 85 1020.0
20260507150036 10 279 3.2 6.4 0.00 0.00 0.00 87 1019.9
20260507144534 9 350 1.6 3.2 0.00 0.00 0.00 88 1019.9
20260507143030 8 347 0.0 4.8 0.00 0.00 0.00 89 1019.9
20260507141530 8 75 0.0 4.8 0.00 0.00 0.00 90 1019.8
20260507140145 7 330 0.0 3.2 0.00 0.00 0.00 90 1019.5
20260507134533 7 154 0.0 6.4 0.00 0.00 0.00 89 1019.3
20260507133106 6 178 3.2 4.8 0.00 0.00 0.00 89 1019.3
20260507130033 7 351 0.0 3.2 0.00 0.00 0.00 88 1019.1
20260507124530 7 93 0.0 4.8 0.00 0.00 0.00 88 1019.1
20260507123030 7 130 3.2 8.0 0.00 0.00 0.00 87 1019.0
20260507120145 8 149 6.4 9.7 0.00 0.00 0.00 86 1018.9
20260507114539 8 79 6.4 11.3 0.00 0.00 0.00 86 1018.8
20260507113031 8 102 3.2 9.7 0.00 0.00 0.00 86 1018.7
20260507111531 8 87 4.8 11.3 0.00 0.00 0.00 85 1018.6
20260507110030 8 109 8.0 14.5 0.00 0.00 0.00 84 1018.5
20260507104530 8 126 8.0 14.5 0.00 0.00 0.00 82 1018.3
20260507103032 10 141 8.0 12.9 0.00 0.00 0.00 81 1018.4
20260507101531 10 103 1.6 8.0 0.00 0.00 0.00 79 1018.3
20260507093033 11 49 3.2 9.7 0.00 0.00 0.00 78 1018.5
20260507090031 11 71 1.6 8.0 0.00 0.00 0.00 80 1018.5
20260507084529 11 95 3.2 11.3 0.00 0.00 0.00 80 1018.6
20260507083032 11 99 4.8 11.3 0.00 0.00 0.00 79 1018.7
20260507081531 11 86 4.8 9.7 0.00 0.00 0.00 77 1018.7
20260507080030 12 75 4.8 12.9 0.00 0.00 0.00 76 1018.8
20260507074531 12 42 9.7 16.1 0.00 0.00 0.00 76 1018.8
20260507073031 11 49 8.0 16.1 0.00 0.00 0.00 76 1018.7
20260507071531 11 85 4.8 11.3 0.00 0.00 0.00 74 1018.7
20260507070034 11 341 1.6 6.4 0.00 0.00 0.00 74 1018.8
20260507064531 11 253 1.6 6.4 0.00 0.00 0.00 74 1018.9
20260507063107 12 139 1.6 8.0 0.00 0.00 0.00 72 1018.9
20260507061529 13 134 3.2 8.0 0.00 0.00 0.00 67 1019.1
20260507060106 14 131 3.2 8.0 0.00 0.00 0.00 63 1019.1
20260507053107 15 303 9.7 25.7 0.00 0.00 0.00 59 1019.1
20260507051607 15 298 14.5 29.0 0.00 0.00 0.00 58 1018.9
20260507050031 15 294 12.9 25.7 0.00 0.00 0.00 57 1019.0
20260507044531 15 302 12.9 24.1 0.00 0.00 0.00 56 1019.2
20260507043030 15 308 8.0 17.7 0.00 0.00 0.00 54 1019.3
20260507041530 15 318 6.4 12.9 0.00 0.00 0.00 53 1019.3
20260507040039 16 316 4.8 14.5 0.00 0.00 0.00 50 1019.1
20260507034531 17 313 12.9 24.1 0.00 0.00 0.00 49 1019.0
20260507033031 17 315 17.7 27.4 0.00 0.00 0.00 48 1018.8
20260507030107 18 310 22.5 35.4 0.00 0.00 0.00 48 1018.4
20260507024528 18 311 20.9 37.0 0.00 0.00 0.00 48 1018.4
20260507023034 18 310 24.1 38.6 0.00 0.00 0.00 48 1018.3
20260507021532 18 312 24.1 38.6 0.00 0.00 0.00 47 1018.2
20260507020106 18 304 24.1 38.6 0.00 0.00 0.00 47 1018.0
20260507014528 18 308 16.1 35.4 0.00 0.00 0.00 47 1018.1
20260507013108 18 325 12.9 30.6 0.00 0.00 0.00 48 1018.1
20260507011531 19 334 16.1 25.7 0.00 0.00 0.00 46 1018.0
20260507010031 20 330 17.7 32.2 0.00 0.00 0.00 45 1017.9
20260507004530 20 327 19.3 32.2 0.00 0.00 0.00 44 1017.8
20260507003032 20 320 22.5 35.4 0.00 0.00 0.00 43 1017.5
20260507001531 20 317 19.3 37.0 0.00 0.00 0.00 43 1017.5
20260507000029 21 320 20.9 35.4 0.00 0.00 0.00 42 1017.3
20260506233029 22 316 20.9 33.8 0.00 0.00 0.00 41 1017.3
20260506231637 22 318 17.7 33.8 0.00 0.00 0.00 40 1017.4
20260506230030 23 323 14.5 30.6 0.00 0.00 0.00 40 1017.6
20260506224529 23 317 19.3 37.0 0.00 0.00 0.00 41 1017.7
20260506221531 24 313 22.5 38.6 0.00 0.00 0.00 40 1017.6
20260506220029 24 323 24.1 37.0 0.00 0.00 0.00 40 1017.4
20260506214647 24 320 22.5 38.6 0.00 0.00 0.00 40 1017.4